,,,PA_Meas_PMT16A,,PR_Meas_QMR101_102,,RH_Meas_QMH101,,SR_Meas_QMS101,,TA_Meas_QMH101,,GenWind,,GenWind,
date,time,status,PA,status,PR,status,RH,status,SR,status,TA,status,DirAvg,status,SpdAvg,
2010-03-29, 00:00:05,VALID,1000.6,VALID,0,VALID,91.5326,VALID,0,VALID,24.0543,VALID,16,VALID,0,
2010-03-29, 00:01:05,VALID,1000.63,VALID,0,VALID,91.5554,VALID,0,VALID,24.0525,VALID,16,VALID,0,
2010-03-29, 00:02:05,VALID,1000.66,VALID,0,VALID,91.5631,VALID,0,VALID,24.0329,VALID,16,VALID,0,
2010-03-29, 00:03:05,VALID,1000.67,VALID,0,VALID,91.6012,VALID,0,VALID,24.0329,VALID,16,VALID,0,
2010-03-29, 00:04:05,VALID,1000.68,VALID,0,VALID,91.441,VALID,0,VALID,23.9939,VALID,16,VALID,0.0125,
2010-03-29, 00:05:05,VALID,1000.68,VALID,0,VALID,91.8377,VALID,0,VALID,23.9726,VALID,16,VALID,0.354297,
2010-03-29, 00:06:05,VALID,1000.68,VALID,0,VALID,91.8911,VALID,0,VALID,24.0116,VALID,67,VALID,0.540625,
2010-03-29, 00:07:05,VALID,1000.68,VALID,0,VALID,91.8911,VALID,0,VALID,24.0525,VALID,82,VALID,0.620703,
2010-03-29, 00:08:05,VALID,1000.68,VALID,0,VALID,91.9598,VALID,0.112286,VALID,24.0506,VALID,86,VALID,0.614062,
2010-03-29, 00:09:05,VALID,1000.7,VALID,0,VALID,91.7691,VALID,0,VALID,24.0701,VALID,118,VALID,0.697266,
2010-03-29, 00:10:05,VALID,1000.71,VALID,0,VALID,91.7996,VALID,0,VALID,24.0701,VALID,112,VALID,0.789844,
2010-03-29, 00:11:05,VALID,1000.73,VALID,0,VALID,91.7004,VALID,0,VALID,24.0915,VALID,111,VALID,0.228125,
2010-03-29, 00:12:05,VALID,1000.72,VALID,0,VALID,91.6012,VALID,0,VALID,24.0311,VALID,111,VALID,0.0078125,
2010-03-29, 00:13:05,VALID,1000.7,VALID,0,VALID,91.502,VALID,0.112286,VALID,24.0506,VALID,111,VALID,0,
2010-03-29, 00:14:05,VALID,1000.7,VALID,0,VALID,91.4791,VALID,0.112286,VALID,23.9921,VALID,111,VALID,0,
2010-03-29, 00:15:05,VALID,1000.69,VALID,0,VALID,91.502,VALID,0,VALID,23.9939,VALID,111,VALID,0.0195313,
2010-03-29, 00:16:05,VALID,1000.68,VALID,0,VALID,91.586,VALID,0,VALID,23.9726,VALID,102,VALID,0.310156,
2010-03-29, 00:17:05,VALID,1000.68,VALID,0,VALID,91.5326,VALID,0,VALID,23.9531,VALID,102,VALID,0.144141,
2010-03-29, 00:18:05,VALID,1000.66,VALID,0,VALID,91.5554,VALID,0,VALID,23.9336,VALID,102,VALID,0,
2010-03-29, 00:19:05,VALID,1000.66,VALID,0,VALID,91.6241,VALID,0,VALID,23.9354,VALID,102,VALID,0,
2010-03-29, 00:20:05,VALID,1000.63,VALID,0,VALID,91.708,VALID,0,VALID,23.9354,VALID,99,VALID,0,
2010-03-29, 00:21:05,VALID,1000.62,VALID,0,VALID,91.7309,VALID,0,VALID,23.9549,VALID,94,VALID,0,
2010-03-29, 00:22:05,VALID,1000.57,VALID,0,VALID,91.792,VALID,0,VALID,23.9336,VALID,50,VALID,0,
2010-03-29, 00:23:05,VALID,1000.58,VALID,0,VALID,91.8759,VALID,0,VALID,23.9726,VALID,50,VALID,0,
2010-03-29, 00:24:05,VALID,1000.59,VALID,0,VALID,91.8072,VALID,0,VALID,23.9726,VALID,51,VALID,0.175391,
2010-03-29, 00:25:05,VALID,1000.59,VALID,0,VALID,91.7462,VALID,0,VALID,23.9921,VALID,68,VALID,0.767578,
2010-03-29, 00:26:05,VALID,1000.61,VALID,0,VALID,91.4028,VALID,0.112286,VALID,23.9939,VALID,62,VALID,0.454297,
2010-03-29, 00:27:05,VALID,1000.62,VALID,0,VALID,91.5936,VALID,0,VALID,23.9744,VALID,22,VALID,0.737891,
2010-03-29, 00:28:05,VALID,1000.64,VALID,0,VALID,91.708,VALID,0,VALID,23.9921,VALID,18,VALID,0.710547,
2010-03-29, 00:29:05,VALID,1000.64,VALID,0,VALID,91.586,VALID,0,VALID,24.0329,VALID,18,VALID,0.612109,
2010-03-29, 00:30:05,VALID,1000.63,VALID,0,VALID,91.5554,VALID,0,VALID,23.9921,VALID,18,VALID,0.710938,
2010-03-29, 00:31:05,VALID,1000.64,VALID,0,VALID,91.4257,VALID,0,VALID,23.9726,VALID,18,VALID,0.794531,
2010-03-29, 00:32:05,VALID,1000.6,VALID,0,VALID,91.2121,VALID,0,VALID,23.9336,VALID,18,VALID,0.884375,
2010-03-29, 00:33:05,VALID,1000.57,VALID,0,VALID,91.0824,VALID,0,VALID,23.8963,VALID,18,VALID,0.914453,
2010-03-29, 00:34:05,VALID,1000.62,VALID,0,VALID,91.2731,VALID,0,VALID,23.8573,VALID,18,VALID,0.928906,
2010-03-29, 00:35:05,VALID,1000.57,VALID,0,VALID,91.2503,VALID,0,VALID,23.8378,VALID,18,VALID,0.898438,
2010-03-29, 00:36:05,VALID,1000.55,VALID,0,VALID,91.1968,VALID,0,VALID,23.7775,VALID,18,VALID,1.08164,
2010-03-29, 00:37:05,VALID,1000.57,VALID,0,VALID,91.4181,VALID,0.112286,VALID,23.797,VALID,17,VALID,1.29336,
2010-03-29, 00:38:05,VALID,1000.55,VALID,0,VALID,91.3647,VALID,0,VALID,23.7775,VALID,16,VALID,1.22539,
2010-03-29, 00:39:05,VALID,1000.58,VALID,0,VALID,91.4105,VALID,0,VALID,23.7988,VALID,13,VALID,1.36055,
2010-03-29, 00:40:05,VALID,1000.54,VALID,0,VALID,91.5097,VALID,0,VALID,23.7988,VALID,18,VALID,1.27461,
2010-03-29, 00:41:05,VALID,1000.53,VALID,0,VALID,91.5631,VALID,0,VALID,23.8378,VALID,13,VALID,1.1,
2010-03-29, 00:42:05,VALID,1000.48,VALID,0,VALID,91.4868,VALID,0,VALID,23.8378,VALID,13,VALID,0.882422,
2010-03-29, 00:43:04,VALID,1000.47,VALID,0,VALID,91.4105,VALID,0,VALID,23.8378,VALID,13,VALID,0.596875,
2010-03-29, 00:44:04,VALID,1000.45,VALID,0,VALID,91.4563,VALID,0,VALID,23.8378,VALID,13,VALID,0.471875,
2010-03-29, 00:45:04,VALID,1000.43,VALID,0,VALID,91.3723,VALID,0,VALID,23.8378,VALID,13,VALID,0.201562,
2010-03-29, 00:46:04,VALID,1000.39,VALID,0,VALID,91.3342,VALID,0,VALID,23.8378,VALID,13,VALID,0.146094,
2010-03-29, 00:47:04,VALID,1000.4,VALID,0,VALID,91.3418,VALID,0,VALID,23.8165,VALID,13,VALID,0,
2010-03-29, 00:48:04,VALID,1000.41,VALID,0,VALID,91.3189,VALID,0,VALID,23.8573,VALID,13,VALID,0.00351562,
2010-03-29, 00:49:04,VALID,1000.37,VALID,0,VALID,91.296,VALID,0,VALID,23.8378,VALID,13,VALID,0.178516,
2010-03-29, 00:50:04,VALID,1000.31,VALID,0,VALID,91.3189,VALID,0,VALID,23.8573,VALID,13,VALID,0,
2010-03-29, 00:51:04,VALID,1000.33,VALID,0,VALID,91.3113,VALID,0,VALID,23.8573,VALID,13,VALID,0,
2010-03-29, 00:52:04,VALID,1000.29,VALID,0,VALID,91.3571,VALID,0,VALID,23.8768,VALID,13,VALID,0,
2010-03-29, 00:53:04,VALID,1000.24,VALID,0,VALID,91.3876,VALID,0,VALID,23.875,VALID,13,VALID,0,
2010-03-29, 00:54:04,VALID,1000.21,VALID,0,VALID,91.3494,VALID,0,VALID,23.8963,VALID,13,VALID,0,
2010-03-29, 00:55:04,VALID,1000.14,VALID,0,VALID,91.3189,VALID,0,VALID,23.914,VALID,13,VALID,0,
2010-03-29, 00:56:04,VALID,1000.13,VALID,0,VALID,91.3876,VALID,0,VALID,23.9549,VALID,13,VALID,0,
2010-03-29, 00:57:04,VALID,1000.09,VALID,0,VALID,91.3494,VALID,0,VALID,23.9531,VALID,13,VALID,0,
2010-03-29, 00:58:04,VALID,1000.08,VALID,0,VALID,91.2884,VALID,0,VALID,23.9726,VALID,13,VALID,0,
2010-03-29, 00:59:04,VALID,1000.09,VALID,0,VALID,91.1587,VALID,0,VALID,23.9939,VALID,13,VALID,0,
2010-03-29, 01:00:04,VALID,1000.07,VALID,0,VALID,91.0443,VALID,0,VALID,23.9726,VALID,13,VALID,0,
2010-03-29, 01:01:04,VALID,1000.1,VALID,0,VALID,90.9832,VALID,0,VALID,23.9744,VALID,13,VALID,0,
2010-03-29, 01:02:04,VALID,1000.05,VALID,0,VALID,90.9832,VALID,0,VALID,23.9549,VALID,13,VALID,0,
2010-03-29, 01:03:04,VALID,1000.05,VALID,0,VALID,91.0061,VALID,0,VALID,23.9549,VALID,13,VALID,0,
2010-03-29, 01:04:04,VALID,1000.05,VALID,0,VALID,90.9298,VALID,0,VALID,23.9549,VALID,13,VALID,0,
2010-03-29, 01:05:04,VALID,1000.06,VALID,0,VALID,90.884,VALID,0,VALID,23.914,VALID,144,VALID,0.569922,
2010-03-29, 01:06:04,VALID,1000.05,VALID,0,VALID,91.1053,VALID,0,VALID,23.9549,VALID,141,VALID,0.741016,
2010-03-29, 01:07:04,VALID,1000.05,VALID,0,VALID,90.9527,VALID,0,VALID,23.9726,VALID,135,VALID,0.839063,
2010-03-29, 01:08:04,VALID,1000.1,VALID,0,VALID,90.7543,VALID,0,VALID,24.0134,VALID,131,VALID,0.691797,
2010-03-29, 01:09:04,VALID,1000.13,VALID,0,VALID,90.5331,VALID,0,VALID,24.0525,VALID,125,VALID,0.758594,
2010-03-29, 01:10:04,VALID,1000.13,VALID,0,VALID,90.4568,VALID,0,VALID,24.0329,VALID,116,VALID,0.647656,
2010-03-29, 01:11:04,VALID,1000.17,VALID,0,VALID,90.266,VALID,0,VALID,24.0116,VALID,117,VALID,0.469141,
2010-03-29, 01:12:04,VALID,1000.13,VALID,0,VALID,90.35,VALID,0,VALID,24.0329,VALID,116,VALID,0.230859,
2010-03-29, 01:13:04,VALID,1000.15,VALID,0,VALID,90.3423,VALID,0,VALID,24.0116,VALID,116,VALID,0,
2010-03-29, 01:14:04,VALID,1000.18,VALID,0,VALID,90.3805,VALID,0,VALID,24.0329,VALID,116,VALID,0,
2010-03-29, 01:15:04,VALID,1000.17,VALID,0,VALID,90.3652,VALID,0,VALID,24.0116,VALID,116,VALID,0,
2010-03-29, 01:16:04,VALID,1000.17,VALID,0,VALID,90.3728,VALID,0,VALID,24.0134,VALID,116,VALID,0,
2010-03-29, 01:17:04,VALID,1000.19,VALID,0,VALID,90.4949,VALID,0,VALID,23.9921,VALID,116,VALID,0,
2010-03-29, 01:18:04,VALID,1000.22,VALID,0,VALID,90.5254,VALID,0,VALID,24.0116,VALID,116,VALID,0,
2010-03-29, 01:19:04,VALID,1000.23,VALID,0,VALID,90.6475,VALID,0,VALID,24.0329,VALID,114,VALID,0,
2010-03-29, 01:20:04,VALID,1000.26,VALID,0,VALID,90.7085,VALID,0,VALID,24.0116,VALID,79,VALID,0,
2010-03-29, 01:21:04,VALID,1000.28,VALID,0,VALID,90.7543,VALID,0,VALID,24.0329,VALID,74,VALID,0.576172,
2010-03-29, 01:22:04,VALID,1000.31,VALID,0,VALID,90.7467,VALID,0,VALID,24.0311,VALID,62,VALID,1,
2010-03-29, 01:23:04,VALID,1000.28,VALID,0,VALID,90.5178,VALID,0,VALID,24.0311,VALID,53,VALID,0.799609,
2010-03-29, 01:24:04,VALID,1000.3,VALID,0,VALID,90.5407,VALID,0,VALID,24.0311,VALID,51,VALID,1.0043,
2010-03-29, 01:25:04,VALID,1000.29,VALID,0,VALID,90.4949,VALID,0,VALID,24.0525,VALID,40,VALID,1.03672,
2010-03-29, 01:26:04,VALID,1000.28,VALID,0,VALID,90.472,VALID,0,VALID,24.072,VALID,36,VALID,0.851172,
2010-03-29, 01:27:04,VALID,1000.26,VALID,0,VALID,90.2966,VALID,0,VALID,24.072,VALID,25,VALID,0.582422,
2010-03-29, 01:28:04,VALID,1000.28,VALID,0,VALID,90.2966,VALID,0,VALID,24.0506,VALID,22,VALID,0.699609,
2010-03-29, 01:29:04,VALID,1000.29,VALID,0,VALID,90.411,VALID,0,VALID,24.0525,VALID,15,VALID,0.850781,
2010-03-29, 01:30:04,VALID,1000.29,VALID,0,VALID,90.6246,VALID,0,VALID,24.072,VALID,1,VALID,1.12227,
2010-03-29, 01:31:04,VALID,1000.29,VALID,0,VALID,90.762,VALID,0,VALID,24.0915,VALID,1,VALID,1.00898,
2010-03-29, 01:32:04,VALID,1000.27,VALID,0,VALID,90.8001,VALID,0,VALID,24.111,VALID,1,VALID,0.715234,
2010-03-29, 01:33:04,VALID,1000.29,VALID,0,VALID,90.8306,VALID,0,VALID,24.1305,VALID,5,VALID,0.838281,
2010-03-29, 01:34:04,VALID,1000.33,VALID,0,VALID,90.8154,VALID,0,VALID,24.1092,VALID,16,VALID,1.04766,
2010-03-29, 01:35:04,VALID,1000.3,VALID,0,VALID,90.8459,VALID,0,VALID,24.1092,VALID,19,VALID,0.975391,
2010-03-29, 01:36:04,VALID,1000.29,VALID,0,VALID,90.8764,VALID,0,VALID,24.1519,VALID,29,VALID,1.10508,
2010-03-29, 01:37:04,VALID,1000.29,VALID,0,VALID,90.9069,VALID,0,VALID,24.1092,VALID,32,VALID,0.875,
2010-03-29, 01:38:04,VALID,1000.29,VALID,0,VALID,90.9909,VALID,0,VALID,24.15,VALID,37,VALID,0.982031,
2010-03-29, 01:39:04,VALID,1000.27,VALID,0,VALID,90.9832,VALID,0,VALID,24.1696,VALID,42,VALID,0.883984,
2010-03-29, 01:40:04,VALID,1000.31,VALID,0,VALID,91.0061,VALID,0,VALID,24.1696,VALID,44,VALID,1.04414,
2010-03-29, 01:41:04,VALID,1000.3,VALID,0,VALID,90.9603,VALID,0,VALID,24.1696,VALID,35,VALID,0.651953,
2010-03-29, 01:42:04,VALID,1000.32,VALID,0,VALID,90.9146,VALID,0,VALID,24.1891,VALID,30,VALID,0.589063,
2010-03-29, 01:43:04,VALID,1000.29,VALID,0,VALID,90.8917,VALID,0,VALID,24.1677,VALID,31,VALID,0.382031,
2010-03-29, 01:44:04,VALID,1000.3,VALID,0,VALID,90.9298,VALID,0,VALID,24.1891,VALID,36,VALID,0.435156,
2010-03-29, 01:45:04,VALID,1000.28,VALID,0,VALID,90.9146,VALID,0,VALID,24.1891,VALID,39,VALID,0,
2010-03-29, 01:46:04,VALID,1000.25,VALID,0,VALID,90.9146,VALID,0,VALID,24.1891,VALID,39,VALID,0,
2010-03-29, 01:47:04,VALID,1000.22,VALID,0,VALID,90.9527,VALID,0,VALID,24.2086,VALID,39,VALID,0,
2010-03-29, 01:48:04,VALID,1000.23,VALID,0,VALID,90.9909,VALID,0,VALID,24.1872,VALID,39,VALID,0.15625,
2010-03-29, 01:49:04,VALID,1000.24,VALID,0,VALID,90.9756,VALID,0,VALID,24.2281,VALID,39,VALID,0,
2010-03-29, 01:50:04,VALID,1000.2,VALID,0,VALID,90.9222,VALID,0,VALID,24.2281,VALID,39,VALID,0,
2010-03-29, 01:51:04,VALID,1000.16,VALID,0,VALID,90.7925,VALID,0,VALID,24.2086,VALID,40,VALID,0.0683594,
2010-03-29, 01:52:04,VALID,1000.12,VALID,0,VALID,90.7391,VALID,0,VALID,24.1891,VALID,40,VALID,0,
2010-03-29, 01:53:04,VALID,1000.14,VALID,0,VALID,90.6399,VALID,0,VALID,24.2086,VALID,40,VALID,0,
2010-03-29, 01:54:04,VALID,1000.14,VALID,0,VALID,90.5712,VALID,0,VALID,24.2086,VALID,40,VALID,0,
2010-03-29, 01:55:04,VALID,1000.12,VALID,0,VALID,90.6399,VALID,0,VALID,24.2086,VALID,30,VALID,0,
2010-03-29, 01:56:04,VALID,1000.14,VALID,0,VALID,90.6017,VALID,0,VALID,24.2671,VALID,22,VALID,0,
2010-03-29, 01:57:04,VALID,1000.16,VALID,0,VALID,90.5865,VALID,0,VALID,24.2671,VALID,22,VALID,0,
2010-03-29, 01:58:04,VALID,1000.13,VALID,0,VALID,90.5178,VALID,0,VALID,24.2671,VALID,22,VALID,0,
2010-03-29, 01:59:04,VALID,1000.14,VALID,0,VALID,90.4491,VALID,0,VALID,24.2671,VALID,22,VALID,0,
2010-03-29, 02:00:04,VALID,1000.13,VALID,0,VALID,90.4873,VALID,0,VALID,24.2671,VALID,22,VALID,0,
2010-03-29, 02:01:04,VALID,1000.11,VALID,0,VALID,90.4644,VALID,0,VALID,24.2671,VALID,22,VALID,0,
2010-03-29, 02:02:04,VALID,1000.1,VALID,0,VALID,90.3881,VALID,0,VALID,24.2476,VALID,118,VALID,0.262891,
2010-03-29, 02:03:04,VALID,1000.06,VALID,0,VALID,90.266,VALID,0,VALID,24.2476,VALID,137,VALID,0.520312,
2010-03-29, 02:04:04,VALID,1000.05,VALID,0,VALID,90.1287,VALID,0,VALID,24.2476,VALID,137,VALID,0.4125,
2010-03-29, 02:05:04,VALID,1000.05,VALID,0,VALID,89.9685,VALID,0,VALID,24.3062,VALID,171,VALID,0.79375,
2010-03-29, 02:06:04,VALID,1000.04,VALID,0,VALID,89.7014,VALID,0,VALID,24.3257,VALID,171,VALID,0.708203,
2010-03-29, 02:07:04,VALID,1000.05,VALID,0,VALID,89.4954,VALID,0,VALID,24.3842,VALID,171,VALID,0.6125,
2010-03-29, 02:08:04,VALID,1000.03,VALID,0,VALID,89.3657,VALID,0,VALID,24.4233,VALID,171,VALID,0.742578,
2010-03-29, 02:09:04,VALID,1000.05,VALID,0,VALID,89.1979,VALID,0,VALID,24.4214,VALID,171,VALID,0.867969,
2010-03-29, 02:10:04,VALID,1000.05,VALID,0,VALID,89.0453,VALID,0,VALID,24.4409,VALID,170,VALID,0.526172,
2010-03-29, 02:11:04,VALID,1000.04,VALID,0,VALID,88.8927,VALID,0,VALID,24.4623,VALID,166,VALID,0.713281,
2010-03-29, 02:12:04,VALID,1000.07,VALID,0,VALID,88.7783,VALID,0,VALID,24.5013,VALID,163,VALID,0.546875,
2010-03-29, 02:13:04,VALID,1000.05,VALID,0,VALID,88.5875,VALID,0,VALID,24.5404,VALID,163,VALID,0.259375,
2010-03-29, 02:14:04,VALID,1000.08,VALID,0,VALID,88.4349,VALID,0,VALID,24.5404,VALID,163,VALID,0.295312,
2010-03-29, 02:15:04,VALID,1000.1,VALID,0,VALID,88.3281,VALID,0,VALID,24.5404,VALID,163,VALID,0.220313,
2010-03-29, 02:16:04,VALID,1000.06,VALID,0,VALID,88.1832,VALID,0,VALID,24.5599,VALID,163,VALID,0,
2010-03-29, 02:17:04,VALID,1000.05,VALID,0,VALID,88.0763,VALID,0,VALID,24.5794,VALID,163,VALID,0,
2010-03-29, 02:18:04,VALID,1000.02,VALID,0,VALID,87.9543,VALID,0,VALID,24.5794,VALID,146,VALID,0,
2010-03-29, 02:19:04,VALID,1000.03,VALID,0,VALID,87.8398,VALID,0,VALID,24.5794,VALID,123,VALID,0,
2010-03-29, 02:20:04,VALID,1000.02,VALID,0,VALID,87.7406,VALID,0,VALID,24.558,VALID,60,VALID,0.685156,
2010-03-29, 02:21:04,VALID,1000.04,VALID,0,VALID,87.8322,VALID,0,VALID,24.5794,VALID,73,VALID,0.726172,
2010-03-29, 02:22:04,VALID,1000.04,VALID,0,VALID,88.0382,VALID,0,VALID,24.5794,VALID,73,VALID,0.737109,
2010-03-29, 02:23:04,VALID,1000.04,VALID,0,VALID,88.3052,VALID,0,VALID,24.5794,VALID,63,VALID,0.742969,
2010-03-29, 02:24:04,VALID,1000.02,VALID,0,VALID,88.4349,VALID,0,VALID,24.5599,VALID,62,VALID,0.65,
2010-03-29, 02:25:04,VALID,1000.04,VALID,0,VALID,88.6791,VALID,0,VALID,24.5385,VALID,50,VALID,0.739844,
2010-03-29, 02:26:04,VALID,1000.05,VALID,0,VALID,88.8774,VALID,0,VALID,24.5404,VALID,30,VALID,0.802344,
2010-03-29, 02:27:04,VALID,1000.04,VALID,0,VALID,88.9919,VALID,0,VALID,24.5209,VALID,27,VALID,0.721484,
2010-03-29, 02:28:04,VALID,1000.06,VALID,0,VALID,89.1597,VALID,0,VALID,24.4818,VALID,20,VALID,1.13242,
2010-03-29, 02:29:04,VALID,1000.02,VALID,0,VALID,89.32,VALID,0,VALID,24.4604,VALID,17,VALID,1.21094,
2010-03-29, 02:30:04,VALID,1000.06,VALID,0,VALID,89.4649,VALID,0,VALID,24.4623,VALID,19,VALID,1.11211,
2010-03-29, 02:31:04,VALID,1000.04,VALID,0,VALID,89.5336,VALID,0,VALID,24.4623,VALID,27,VALID,0.880469,
2010-03-29, 02:32:04,VALID,1000.03,VALID,0,VALID,89.5946,VALID,0,VALID,24.4428,VALID,26,VALID,0.794922,
2010-03-29, 02:33:04,VALID,1000.04,VALID,0,VALID,89.7396,VALID,0,VALID,24.4428,VALID,35,VALID,0.921484,
2010-03-29, 02:34:04,VALID,1000.03,VALID,0,VALID,89.9151,VALID,0,VALID,24.4428,VALID,40,VALID,0.834375,
2010-03-29, 02:35:04,VALID,1000.04,VALID,0,VALID,89.938,VALID,0,VALID,24.4409,VALID,46,VALID,1.18125,
2010-03-29, 02:36:04,VALID,1000.08,VALID,0,VALID,89.9914,VALID,0,VALID,24.4623,VALID,44,VALID,1.21953,
2010-03-29, 02:37:04,VALID,1000.09,VALID,0,VALID,90.0295,VALID,0,VALID,24.4818,VALID,46,VALID,1.2418,
2010-03-29, 02:38:04,VALID,1000.06,VALID,0,VALID,90.0524,VALID,0,VALID,24.4409,VALID,43,VALID,1.22148,
2010-03-29, 02:39:04,VALID,1000.07,VALID,0,VALID,90.144,VALID,0,VALID,24.4818,VALID,38,VALID,0.902734,
2010-03-29, 02:40:04,VALID,1000.09,VALID,0,VALID,90.1363,VALID,0,VALID,24.4818,VALID,30,VALID,0.894531,
2010-03-29, 02:41:04,VALID,1000.07,VALID,0,VALID,90.1287,VALID,0,VALID,24.4818,VALID,42,VALID,0.977344,
2010-03-29, 02:42:04,VALID,1000.11,VALID,0,VALID,90.1211,VALID,0,VALID,24.4623,VALID,34,VALID,0.988672,
2010-03-29, 02:43:04,VALID,1000.12,VALID,0,VALID,90.0371,VALID,0,VALID,24.4409,VALID,38,VALID,0.85625,
2010-03-29, 02:44:04,VALID,1000.13,VALID,0,VALID,90.0677,VALID,0,VALID,24.4409,VALID,38,VALID,0.775,
2010-03-29, 02:45:04,VALID,1000.12,VALID,0,VALID,90.1821,VALID,0,VALID,24.4604,VALID,38,VALID,0.554297,
2010-03-29, 02:46:04,VALID,1000.13,VALID,0,VALID,90.205,VALID,0,VALID,24.48,VALID,38,VALID,0.455469,
2010-03-29, 02:47:04,VALID,1000.14,VALID,0,VALID,90.2279,VALID,0,VALID,24.4995,VALID,38,VALID,0.41875,
2010-03-29, 02:48:04,VALID,1000.13,VALID,0,VALID,90.2737,VALID,0,VALID,24.4995,VALID,38,VALID,0.539844,
2010-03-29, 02:49:04,VALID,1000.15,VALID,0,VALID,90.3194,VALID,0,VALID,24.4995,VALID,38,VALID,0.179688,
2010-03-29, 02:50:04,VALID,1000.15,VALID,0,VALID,90.3576,VALID,0,VALID,24.4995,VALID,38,VALID,0.151953,
2010-03-29, 02:51:04,VALID,1000.15,VALID,0,VALID,90.3881,VALID,0,VALID,24.48,VALID,38,VALID,0.104687,
2010-03-29, 02:52:04,VALID,1000.16,VALID,0,VALID,90.4263,VALID,0,VALID,24.48,VALID,38,VALID,0.0375,
2010-03-29, 02:53:04,VALID,1000.2,VALID,0,VALID,90.4797,VALID,0,VALID,24.48,VALID,38,VALID,0.0015625,
2010-03-29, 02:54:04,VALID,1000.22,VALID,0,VALID,90.5407,VALID,0.112286,VALID,24.4409,VALID,38,VALID,0,
2010-03-29, 02:55:04,VALID,1000.21,VALID,0,VALID,90.5636,VALID,0,VALID,24.4409,VALID,38,VALID,0.0964844,
2010-03-29, 02:56:04,VALID,1000.23,VALID,0,VALID,90.6094,VALID,0,VALID,24.4428,VALID,38,VALID,0.306641,
2010-03-29, 02:57:04,VALID,1000.27,VALID,0,VALID,90.7162,VALID,0,VALID,24.4214,VALID,38,VALID,0.285156,
2010-03-29, 02:58:04,VALID,1000.28,VALID,0,VALID,90.8001,VALID,0,VALID,24.4428,VALID,38,VALID,0.35,
2010-03-29, 02:59:04,VALID,1000.29,VALID,0,VALID,90.8611,VALID,0,VALID,24.4409,VALID,38,VALID,0.355078,
2010-03-29, 03:00:04,VALID,1000.3,VALID,0,VALID,90.8764,VALID,0,VALID,24.4409,VALID,39,VALID,0.315625,
2010-03-29, 03:01:04,VALID,1000.28,VALID,0,VALID,90.8459,VALID,0,VALID,24.4818,VALID,39,VALID,0.0289063,
2010-03-29, 03:02:04,VALID,1000.28,VALID,0,VALID,90.762,VALID,0,VALID,24.4623,VALID,92,VALID,0.582812,
2010-03-29, 03:03:04,VALID,1000.3,VALID,0,VALID,90.7925,VALID,0,VALID,24.4428,VALID,92,VALID,0.769922,
2010-03-29, 03:04:04,VALID,1000.32,VALID,0,VALID,90.7849,VALID,0,VALID,24.4428,VALID,93,VALID,0.689062,
2010-03-29, 03:05:04,VALID,1000.28,VALID,0,VALID,90.7925,VALID,0,VALID,24.4623,VALID,101,VALID,0.880859,
2010-03-29, 03:06:04,VALID,1000.29,VALID,0,VALID,90.8535,VALID,0,VALID,24.4818,VALID,101,VALID,0.974609,
2010-03-29, 03:07:04,VALID,1000.35,VALID,0,VALID,90.9832,VALID,0,VALID,24.5013,VALID,101,VALID,0.703125,
2010-03-29, 03:08:04,VALID,1000.33,VALID,0,VALID,91.0366,VALID,0.112286,VALID,24.519,VALID,95,VALID,0.662891,
2010-03-29, 03:09:04,VALID,1000.35,VALID,0,VALID,90.9451,VALID,0,VALID,24.519,VALID,86,VALID,0.814062,
2010-03-29, 03:10:04,VALID,1000.36,VALID,0,VALID,90.7925,VALID,0,VALID,24.48,VALID,81,VALID,0.78125,
2010-03-29, 03:11:04,VALID,1000.34,VALID,0,VALID,90.8917,VALID,0.112286,VALID,24.4391,VALID,81,VALID,0.200781,
2010-03-29, 03:12:04,VALID,1000.32,VALID,0,VALID,90.9069,VALID,0,VALID,24.4604,VALID,80,VALID,0,
2010-03-29, 03:13:04,VALID,1000.33,VALID,0,VALID,90.9374,VALID,0,VALID,24.4604,VALID,79,VALID,0.00507812,
2010-03-29, 03:14:04,VALID,1000.31,VALID,0,VALID,90.8764,VALID,0,VALID,24.4214,VALID,41,VALID,0.677734,
2010-03-29, 03:15:04,VALID,1000.31,VALID,0,VALID,90.9374,VALID,0,VALID,24.4409,VALID,58,VALID,0.201562,
2010-03-29, 03:16:04,VALID,1000.31,VALID,0,VALID,90.9374,VALID,0,VALID,24.4409,VALID,26,VALID,0.426172,
2010-03-29, 03:17:04,VALID,1000.28,VALID,0,VALID,91.0671,VALID,0,VALID,24.4604,VALID,10,VALID,0.527344,
2010-03-29, 03:18:04,VALID,1000.26,VALID,0.5,VALID,91.0824,VALID,0,VALID,24.48,VALID,340,VALID,0.689844,
2010-03-29, 03:19:04,VALID,1000.26,VALID,0,VALID,91.1511,VALID,0,VALID,24.519,VALID,338,VALID,0.4375,
2010-03-29, 03:20:04,VALID,1000.25,VALID,0,VALID,91.09,VALID,0,VALID,24.4995,VALID,338,VALID,0.00585938,
2010-03-29, 03:21:04,VALID,1000.25,VALID,0,VALID,91.1206,VALID,0,VALID,24.5209,VALID,343,VALID,0.384375,
2010-03-29, 03:22:04,VALID,1000.26,VALID,0,VALID,91.0977,VALID,0.112286,VALID,24.4995,VALID,343,VALID,0.0929687,
2010-03-29, 03:23:04,VALID,1000.27,VALID,0,VALID,91.0519,VALID,0,VALID,24.48,VALID,343,VALID,0,
2010-03-29, 03:24:04,VALID,1000.28,VALID,0,VALID,91.0671,VALID,0,VALID,24.4604,VALID,343,VALID,0,
2010-03-29, 03:25:04,VALID,1000.24,VALID,0,VALID,91.0519,VALID,0,VALID,24.4409,VALID,343,VALID,0,
2010-03-29, 03:26:04,VALID,1000.28,VALID,0,VALID,91.0671,VALID,0,VALID,24.4623,VALID,343,VALID,0,
2010-03-29, 03:27:04,VALID,1000.28,VALID,0,VALID,91.0595,VALID,0,VALID,24.4214,VALID,343,VALID,0,
2010-03-29, 03:28:04,VALID,1000.27,VALID,0,VALID,91.09,VALID,0,VALID,24.4214,VALID,343,VALID,0,
2010-03-29, 03:29:04,VALID,1000.28,VALID,0,VALID,91.1892,VALID,0.112286,VALID,24.4214,VALID,360,VALID,0.0160156,
2010-03-29, 03:30:04,VALID,1000.32,VALID,0,VALID,91.3571,VALID,0,VALID,24.4409,VALID,85,VALID,0.580078,
2010-03-29, 03:31:04,VALID,1000.29,VALID,0,VALID,91.3723,VALID,0,VALID,24.4623,VALID,102,VALID,0.886328,
2010-03-29, 03:32:04,VALID,1000.32,VALID,0,VALID,91.3876,VALID,0,VALID,24.4818,VALID,110,VALID,0.878516,
2010-03-29, 03:33:04,VALID,1000.36,VALID,0,VALID,91.3494,VALID,0,VALID,24.48,VALID,95,VALID,0.623828,
2010-03-29, 03:34:04,VALID,1000.34,VALID,0,VALID,91.3571,VALID,0,VALID,24.5209,VALID,118,VALID,0.691797,
2010-03-29, 03:35:04,VALID,1000.33,VALID,0,VALID,91.3418,VALID,0,VALID,24.519,VALID,109,VALID,1.01797,
2010-03-29, 03:36:04,VALID,1000.31,VALID,0,VALID,91.3494,VALID,0,VALID,24.5209,VALID,108,VALID,1.22812,
2010-03-29, 03:37:04,VALID,1000.3,VALID,0,VALID,91.3342,VALID,0,VALID,24.5209,VALID,107,VALID,1.41055,
2010-03-29, 03:38:04,VALID,1000.3,VALID,0,VALID,91.2884,VALID,0,VALID,24.5209,VALID,107,VALID,1.15313,
2010-03-29, 03:39:04,VALID,1000.3,VALID,0,VALID,91.2884,VALID,0,VALID,24.4995,VALID,102,VALID,1.21445,
2010-03-29, 03:40:04,VALID,1000.29,VALID,0,VALID,91.2579,VALID,0,VALID,24.519,VALID,105,VALID,1.24258,
2010-03-29, 03:41:04,VALID,1000.32,VALID,0,VALID,91.1816,VALID,0,VALID,24.519,VALID,105,VALID,0.842969,
2010-03-29, 03:42:04,VALID,1000.32,VALID,0,VALID,91.1816,VALID,0,VALID,24.5404,VALID,110,VALID,0.835156,
2010-03-29, 03:43:04,VALID,1000.31,VALID,0,VALID,91.1663,VALID,0,VALID,24.519,VALID,113,VALID,0.659375,
2010-03-29, 03:44:04,VALID,1000.33,VALID,0,VALID,91.174,VALID,0,VALID,24.519,VALID,113,VALID,0.786328,
2010-03-29, 03:45:04,VALID,1000.37,VALID,0,VALID,91.1816,VALID,0,VALID,24.519,VALID,114,VALID,0.821094,
2010-03-29, 03:46:04,VALID,1000.39,VALID,0,VALID,91.1892,VALID,0,VALID,24.5404,VALID,115,VALID,0.650781,
2010-03-29, 03:47:04,VALID,1000.39,VALID,0,VALID,91.1358,VALID,0,VALID,24.5209,VALID,116,VALID,0.939844,
2010-03-29, 03:48:04,VALID,1000.41,VALID,0,VALID,91.1129,VALID,0,VALID,24.519,VALID,128,VALID,0.371875,
2010-03-29, 03:49:04,VALID,1000.46,VALID,0,VALID,91.174,VALID,0,VALID,24.5209,VALID,122,VALID,0.247266,